Waarnemingen

Advertentie
Mijn weer
Lorient Lan Bihoue, Frankrijk (7205): temperatuur & dauwpunt: 17.07.2018 02:00:00 - 23.07.2018 02:00:00 (CEST)Lorient Lan Bihoue, Frankrijk (7205): temperatuur 5cm: 17.07.2018 02:00:00 - 23.07.2018 02:00:00 (CEST)Lorient Lan Bihoue, Frankrijk (7205): temperatuur -20cm: 17.07.2018 02:00:00 - 23.07.2018 02:00:00 (CEST)Lorient Lan Bihoue, Frankrijk (7205): windsnelheid & windstoten: 17.07.2018 02:00:00 - 23.07.2018 02:00:00 (CEST)Lorient Lan Bihoue, Frankrijk (7205): windrichting: 17.07.2018 02:00:00 - 23.07.2018 02:00:00 (CEST)Lorient Lan Bihoue, Frankrijk (7205): luchtdruk: 17.07.2018 02:00:00 - 23.07.2018 02:00:00 (CEST)Lorient Lan Bihoue, Frankrijk (7205): zicht: 17.07.2018 02:00:00 - 23.07.2018 02:00:00 (CEST)Lorient Lan Bihoue, Frankrijk (7205): Zonneschijnduur: 17.07.2018 02:00:00 - 23.07.2018 02:00:00 (CEST)Lorient Lan Bihoue, Frankrijk (7205): neerslag: 17.07.2018 02:00:00 - 23.07.2018 02:00:00 (CEST)
Datum & Tijd tt [°C] td [°C] tt 5cm [°C] tt -20cm [°C] ff [km/u] ff [kn] fx [km/u] fx [kn] dd ppp [hPa] vv [km] sd [min] rr [mm]
23.07.2018 02:00:00 17,5 15,8 16,4 21,7 11 6 17 9 NO 1019,3 44 0 0,0
23.07.2018 01:00:00 17,9 16,8 17,2 21,7 15 8 23 12 NNO 1019,3 40 0 0,0
23.07.2018 00:00:00 18,8 16,6 16,9 21,8 13 7 23 12 N 1019,1 44 0 0,0
22.07.2018 23:00:00 18,8 17,3 18,0 21,8 8 4 13 7 W 1018,9 37 0 0,0
22.07.2018 22:00:00 20,0 17,4 19,5 21,9 10 5 19 11 WZW 1018,3 41 33 0,0
22.07.2018 21:00:00 21,6 17,0 21,5 21,8 12 6 26 14 W 1017,9 50 60 0,0
22.07.2018 20:00:00 21,9 18,5 23,4 21,7 16 9 26 14 W 1017,8 60 60 0,0
22.07.2018 19:00:00 22,7 17,8 24,5 21,5 18 10 26 14 WZW 1017,8 55 53 0,0
22.07.2018 18:00:00 23,1 17,1 27,6 21,3 20 11 29 15 W 1018,0 40 60 0,0
22.07.2018 17:00:00 23,4 17,6 29,1 21,0 20 11 27 15 W 1018,2 20 60 0,0
22.07.2018 16:00:00 23,5 17,7 28,8 20,8 19 10 26 14 WZW 1018,4 37 60 0,0
22.07.2018 15:00:00 23,9 17,9 28,9 20,5 17 9 27 15 WZW 1018,2 36 60 0,0
22.07.2018 14:00:00 23,4 18,3 25,4 20,4 12 7 22 12 WZW 1018,2 20 34 0,0
22.07.2018 13:00:00 22,1 18,3 24,9 20,3 9 5 15 8 ZW 1018,2 41 16 0,0
22.07.2018 12:00:00 22,2 17,8 25,8 20,2 6 3 11 6 W 1018,1 33 37 0,0
22.07.2018 11:00:00 20,2 18,7 21,0 20,2 2 1 8 4 OZO 1018,2 20 24 0,0
22.07.2018 10:00:00 17,4 17,4 18,1 20,2 4 2 13 7 ONO 1018,0 2,8 13 0,0
22.07.2018 09:00:00 16,4 16,4 15,6 20,4 9 5 14 8 NO 1017,9 1,8 29 0,0
22.07.2018 08:00:00 15,3 15,3 13,3 20,4 11 6 13 7 NNO 1017,6 12 0 0,0
22.07.2018 07:00:00 14,2 14,2 11,4 20,6 5 3 8 5 NNO 1017,4 0,3 0 0,0
22.07.2018 06:00:00 14,6 14,6 11,9 20,7 2 1 4 2 ONO 1017,1 0,4 0 0,0
22.07.2018 05:00:00 15,2 15,2 12,0 20,8 3 2 5 3 ZZO 1017,0 9 0 0,0
22.07.2018 04:00:00 15,9 15,9 12,6 20,9 3 1 6 3 N 1016,8 5 0 0,0
22.07.2018 03:00:00 15,8 15,8 12,4 21,0 0 0 4 2 N 1016,8 3,0 0 0,0
22.07.2018 02:00:00 16,3 16,3 13,3 21,1 0 0 6 3 N 1017,0 0,7 0 0,0
22.07.2018 01:00:00 16,1 16,1 13,9 21,2 3 2 6 3 NNO 1017,1 7 0 0,0
22.07.2018 00:00:00 16,4 16,2 13,9 21,3 0 0 3 2 N 1017,0 8 0 0,0
21.07.2018 23:00:00 17,1 16,3 14,1 21,2 2 1 4 2 W 1016,8 9 0 0,0
21.07.2018 22:00:00 18,4 16,6 16,8 21,2 0 0 11 6 N 1016,3 47 23 0,0
21.07.2018 21:00:00 20,4 17,2 20,7 21,1 9 5 17 9 WZW 1015,8 52 60 0,0
21.07.2018 20:00:00 21,2 16,4 22,3 20,9 10 6 18 10 WZW 1015,2 57 44 0,0
21.07.2018 19:00:00 21,6 16,8 22,4 20,7 8 4 16 9 Z 1015,2 57 44 0,0
21.07.2018 18:00:00 21,6 17,2 24,1 20,5 10 6 19 11 Z 1015,3 47 51 0,0
21.07.2018 17:00:00 21,5 17,5 23,6 20,3 12 7 24 13 ZZO 1015,3 52 36 0,0
21.07.2018 16:00:00 21,5 18,1 23,1 20,2 14 7 21 12 Z 1015,3 56 20 0,0
21.07.2018 15:00:00 20,0 18,0 23,5 20,1 16 9 22 12 Z 1015,1 51 10 0,0
21.07.2018 14:00:00 20,0 18,1 22,8 20,0 9 5 18 10 ZO 1014,7 20 0 0,0
21.07.2018 13:00:00 19,3 18,5 17,6 20,0 10 5 21 12 ZZO 1014,5 40 7 3,6
21.07.2018 12:00:00 17,4 17,4 17,4 20,0 14 7 23 12 OZO 1014,7 1,7 0 6,9
21.07.2018 11:00:00 17,7 17,5 17,6 20,0 5 3 16 8 OZO 1014,5 34 0 0,0
21.07.2018 10:00:00 16,9 16,9 16,6 20,1 12 7 20 11 ZZO 1014,4 27 0 0,2
21.07.2018 09:00:00 16,4 16,4 16,1 20,2 13 7 20 11 Z 1014,3 10 0 0,2
21.07.2018 08:00:00 16,2 16,2 16,0 20,3 10 5 14 8 ZO 1014,4 2,3 0 10,7
21.07.2018 07:00:00 16,3 16,3 16,0 20,4 5 3 6 4 ZZO 1014,3 1,9 0 5,7
21.07.2018 06:00:00 16,4 16,2 16,2 20,5 0 0 8 4 N 1014,5 2,5 0 2,8
21.07.2018 05:00:00 16,8 16,0 16,5 20,5 3 2 7 4 W 1014,7 15 0 0,0
21.07.2018 04:00:00 16,5 15,5 16,4 20,6 4 2 10 5 WNW 1015,1 29 0 0,0
21.07.2018 03:00:00 16,5 15,7 15,8 20,7 6 3 12 7 W 1015,6 20 0 0,0
21.07.2018 02:00:00 15,7 14,6 15,0 20,8 3 2 8 5 W 1016,2 39 0 0,0
21.07.2018 01:00:00 15,3 13,8 13,3 20,9 6 3 11 6 W 1016,5 42 0 0,0
21.07.2018 00:00:00 14,7 12,0 13,7 21,0 9 5 20 11 W 1016,5 56 0 0,0
20.07.2018 23:00:00 15,6 11,8 14,7 21,1 11 6 24 13 WNW 1016,5 30 0 0,0
20.07.2018 22:00:00 17,4 11,2 16,7 21,1 14 8 24 13 NW 1016,3 60 14 0,0
20.07.2018 21:00:00 19,1 10,6 18,3 21,1 17 9 29 16 WNW 1016,1 58 54 0,0
20.07.2018 20:00:00 20,9 10,4 21,6 21,0 16 9 34 19 NW 1015,9 51 60 0,0
20.07.2018 19:00:00 21,5 11,8 23,5 20,8 24 13 34 19 W 1016,1 45 60 0,0
20.07.2018 18:00:00 22,2 11,3 26,8 20,7 19 11 41 22 WNW 1016,1 45 60 0,0
20.07.2018 17:00:00 22,6 11,6 25,2 20,6 27 15 42 23 W 1016,4 48 53 0,0
20.07.2018 16:00:00 21,8 12,1 23,5 20,5 25 14 38 21 W 1016,5 58 20 0,0
20.07.2018 15:00:00 22,3 12,8 23,7 20,4 16 8 30 16 WNW 1016,7 50 14 0,0
20.07.2018 14:00:00 20,8 13,0 23,0 20,2 17 9 29 16 NW 1017,3 52 6 0,0
20.07.2018 13:00:00 22,7 11,7 23,0 20,1 14 8 26 14 NNW 1017,3 52 40 0,0
20.07.2018 12:00:00 20,6 12,6 22,4 20,1 14 7 30 16 NW 1017,5 57 37 0,0
20.07.2018 11:00:00 20,7 12,7 25,2 20,1 18 10 27 15 NW 1017,6 44 60 0,0
20.07.2018 10:00:00 18,9 14,0 23,2 20,2 16 9 24 13 NNW 1017,6 56 60 0,0
20.07.2018 09:00:00 16,7 14,2 18,5 20,4 11 6 23 12 NNW 1017,6 55 58 0,0
20.07.2018 08:00:00 13,7 13,2 11,8 20,5 5 3 10 5 WNW 1017,8 20 52 0,0
20.07.2018 07:00:00 12,0 11,5 10,8 20,6 6 3 11 6 W 1017,6 18 0 0,0
20.07.2018 06:00:00 11,8 11,5 10,8 20,8 6 4 10 5 W 1017,6 18 0 0,0
20.07.2018 05:00:00 12,0 11,5 11,1 20,9 6 3 9 5 W 1017,6 20 0 0,0
20.07.2018 04:00:00 12,3 11,4 11,7 21,1 7 4 11 6 W 1017,9 31 0 0,0
20.07.2018 03:00:00 12,9 11,8 11,8 21,2 6 4 10 5 NW 1018,2 36 0 0,0
20.07.2018 02:00:00 13,7 11,6 12,5 21,4 7 4 13 7 WNW 1018,6 41 0 0,0
20.07.2018 01:00:00 15,9 11,9 14,2 21,5 9 5 22 12 NNW 1018,7 48 0 0,0
20.07.2018 00:00:00 17,1 11,1 15,6 21,6 11 6 27 15 N 1018,5 49 0 0,0
19.07.2018 23:00:00 18,9 11,5 17,6 21,7 15 8 24 13 N 1018,3 50 0 0,0
19.07.2018 22:00:00 19,8 11,6 18,7 21,7 13 7 28 15 N 1017,7 54 36 0,0
19.07.2018 21:00:00 21,4 12,8 21,3 21,7 18 10 34 18 N 1017,4 43 60 0,0
19.07.2018 20:00:00 22,5 13,3 23,8 21,6 16 9 33 18 N 1017,2 20 56 0,0
19.07.2018 19:00:00 22,9 13,9 24,1 21,5 19 10 36 20 N 1017,1 38 0 0,0
19.07.2018 18:00:00 23,9 14,0 25,6 21,4 19 10 32 18 N 1017,2 56 0 0,0
19.07.2018 17:00:00 24,8 14,3 26,9 21,3 15 8 28 15 N 1016,8 35 8 0,0
19.07.2018 16:00:00 25,3 14,1 27,5 21,1 10 5 21 12 NNW 1017,3 56 5 0,0
19.07.2018 15:00:00 24,6 13,2 27,7 20,8 11 6 23 12 N 1017,5 48 17 0,0
19.07.2018 14:00:00 24,4 13,0 27,3 20,7 16 8 27 15 N 1017,6 52 46 0,0
19.07.2018 13:00:00 24,0 13,2 28,6 20,5 15 8 26 14 N 1017,8 52 60 0,0
19.07.2018 12:00:00 23,3 12,6 26,3 20,5 13 7 29 15 N 1018,2 60 60 0,0
19.07.2018 11:00:00 21,6 11,9 23,9 20,4 16 8 30 16 NNO 1018,1 60 57 0,0
19.07.2018 10:00:00 19,8 12,5 18,9 20,5 15 8 24 13 NNO 1018,1 60 34 0,0
19.07.2018 09:00:00 17,6 12,3 16,9 20,6 17 9 27 15 NNO 1018,0 57 48 0,0
19.07.2018 08:00:00 16,0 11,8 15,1 20,7 16 9 27 15 NNO 1017,9 59 18 0,0
19.07.2018 07:00:00 15,4 12,0 14,8 20,8 18 10 27 15 NNO 1017,4 57 0 0,0
19.07.2018 06:00:00 15,4 12,0 14,6 21,0 17 9 31 17 NNO 1017,4 60 0 0,0
19.07.2018 05:00:00 15,1 12,2 14,4 21,1 16 8 29 15 N 1017,7 60 0 0,0
19.07.2018 04:00:00 15,1 11,7 14,4 21,3 18 10 32 17 NNO 1017,7 60 0 0,0
19.07.2018 03:00:00 15,4 11,2 14,7 21,4 20 11 31 17 NNO 1018,2 60 0 0,0
19.07.2018 02:00:00 16,2 10,9 15,4 21,5 19 10 27 14 NNO 1018,5 60 0 0,0
19.07.2018 01:00:00 16,8 11,3 16,1 21,6 16 9 31 17 NNO 1018,8 60 0 0,0
19.07.2018 00:00:00 18,0 11,5 17,2 21,7 18 10 30 16 NNO 1018,6 60 0 0,0
18.07.2018 23:00:00 18,9 11,9 17,6 21,7 17 9 27 15 NNO 1018,2 60 0 0,0
18.07.2018 22:00:00 20,0 12,0 18,9 21,7 19 11 32 18 NO 1017,6 60 0 0,0
18.07.2018 21:00:00 22,5 13,3 21,9 21,6 21 11 31 17 NNO 1016,8 58 32 0,0
18.07.2018 20:00:00 24,3 13,8 23,8 21,5 15 8 25 13 NNO 1016,3 46 53 0,0
18.07.2018 19:00:00 23,9 14,0 25,2 21,4 18 10 29 16 W 1016,8 45 60 0,0
18.07.2018 18:00:00 23,9 14,6 26,9 21,2 21 12 33 18 W 1017,1 47 57 0,0
18.07.2018 17:00:00 23,8 13,9 26,4 21,0 22 12 33 18 W 1017,3 53 58 0,0
18.07.2018 16:00:00 21,8 12,1 24,3 20,9 26 14 36 19 W 1017,5 60 40 0,0
18.07.2018 15:00:00 22,7 13,2 23,9 20,7 22 12 32 17 W 1017,5 53 19 0,0
18.07.2018 14:00:00 21,9 12,4 25,0 20,6 16 9 26 14 W 1017,7 20 14 0,0
18.07.2018 13:00:00 21,8 12,1 25,4 20,4 10 6 19 11 WNW 1018,0 55 23 0,0
18.07.2018 12:00:00 22,3 12,3 27,7 20,4 5 3 21 11 NO 1018,2 19 60 0,0
18.07.2018 11:00:00 20,7 12,4 26,2 20,4 11 6 21 11 N 1018,6 58 60 0,0
18.07.2018 10:00:00 19,0 13,0 22,0 20,4 12 6 19 11 N 1019,0 60 60 0,4
18.07.2018 09:00:00 17,4 13,1 15,0 20,5 10 6 16 9 N 1019,0 57 55 0,0
18.07.2018 08:00:00 13,8 12,0 12,1 20,7 6 4 12 7 N 1019,1 51 23 0,0
18.07.2018 07:00:00 12,5 11,4 10,3 20,8 6 4 11 6 N 1019,0 47 0 0,0
18.07.2018 06:00:00 12,3 11,2 10,4 20,9 7 4 10 5 N 1019,1 40 0 0,0
18.07.2018 05:00:00 12,8 12,0 10,4 21,1 3 1 8 4 N 1019,1 18 0 0,0
18.07.2018 04:00:00 12,0 10,9 8,1 21,3 6 3 7 4 NNO 1019,2 10 0 0,0
18.07.2018 03:00:00 12,7 11,3 8,7 21,4 5 3 11 6 N 1019,5 44 0 0,0
18.07.2018 02:00:00 13,2 11,4 10,3 21,6 8 4 11 6 NNW 1019,6 54 0 0,0
18.07.2018 01:00:00 14,2 11,5 12,3 21,7 7 4 13 7 NNW 1019,8 55 0 0,0
18.07.2018 00:00:00 14,9 11,5 12,7 21,9 8 5 13 7 N 1019,8 58 0 0,0
17.07.2018 23:00:00 15,9 11,7 14,6 21,9 8 4 21 12 WNW 1019,8 54 0 0,0
17.07.2018 22:00:00 17,3 11,8 16,6 22,0 14 8 27 15 W 1019,2 59 24 0,0
17.07.2018 21:00:00 19,3 13,0 19,4 22,0 17 9 32 17 W 1019,1 58 60 0,0
17.07.2018 20:00:00 20,3 12,3 21,4 21,9 22 12 34 18 W 1019,0 45 60 0,0
17.07.2018 19:00:00 21,0 11,9 22,6 21,8 22 12 35 19 W 1019,1 38 46 0,0
17.07.2018 18:00:00 21,5 12,3 25,5 21,7 25 13 38 20 WZW 1019,2 38 60 0,0
17.07.2018 17:00:00 22,0 10,5 27,1 21,5 22 12 33 18 WZW 1019,2 36 60 0,0
17.07.2018 16:00:00 22,1 9,3 27,6 21,3 21 12 36 19 W 1019,5 38 60 0,0
17.07.2018 15:00:00 22,1 11,2 27,6 21,1 23 12 40 21 W 1019,7 15 60 0,0
17.07.2018 14:00:00 21,9 12,2 26,9 21,0 21 12 32 17 W 1019,8 50 58 0,0
17.07.2018 13:00:00 20,5 13,2 24,5 20,9 23 12 36 19 W 1020,1 19 46 0,0
17.07.2018 12:00:00 20,9 14,3 21,9 20,9 17 9 24 13 WZW 1020,1 20 34 0,0
17.07.2018 11:00:00 19,4 14,6 22,0 20,9 11 6 19 10 W 1019,9 43 27 0,0
17.07.2018 10:00:00 18,8 14,5 19,2 20,9 13 7 22 12 WNW 1019,7 50 41 0,0
17.07.2018 09:00:00 16,9 14,9 18,1 21,1 8 4 13 7 WNW 1019,7 38 1 0,0
17.07.2018 08:00:00 15,7 14,9 13,3 21,2 5 3 7 4 OZO 1019,5 32 60 0,0
17.07.2018 07:00:00 12,8 12,6 9,8 21,4 5 3 8 4 ZO 1019,3 10 0 0,0
17.07.2018 06:00:00 13,3 12,8 11,1 21,5 5 3 7 4 WNW 1019,1 9 0 0,0
17.07.2018 05:00:00 14,0 13,4 12,7 21,6 6 3 10 5 NW 1019,0 18 0 0,0
17.07.2018 04:00:00 15,2 14,1 14,4 21,7 7 4 10 5 W 1019,1 32 0 0,0
17.07.2018 03:00:00 15,9 14,6 15,3 21,8 6 3 14 8 WNW 1019,1 34 0 0,0
17.07.2018 02:00:00 16,5 14,9 16,2 21,9 9 5 15 8 WNW 1019,2 38 0 0,0

tt = temperatuur
td = dauwpunt
tt 5cm = temperatuur 5cm
tt -20cm = temperatuur -20cm
ff = windsnelheid
fx = windstoten
dd = windrichting
ppp = luchtdruk
vv = zicht
sd = Zonneschijnduur
rr = neerslag

Weerstations in de omgeving